Change the Weather History Date:

Friday, November 1, 2013

  Actual Average Record
Temperature  
Mean Temperature 64 °F 52 °F  
Max Temperature 75 °F 64 °F 83 °F (1950)
Min Temperature 52 °F 40 °F 22 °F (1890)
Degree Days  
Heating Degree Days 1 13  
Month to date heating degree days 1 13  
Since 1 July heating degree days 252 348  
Cooling Degree Days 0 0  
Month to date cooling degree days 0 0  
Year to date cooling degree days 860 862  
Growing Degree Days 14 (Base 50)    
Moisture  
Dew Point 56 °F    
Average Humidity 69    
Maximum Humidity 97    
Minimum Humidity 41    
Precipitation  
Precipitation 0.11 in 0.11 in 1.15 in (1961)
Month to date precipitation 0.11 0.11  
Year to date precipitation 64.11 38.44  
Snow  
Snow 0.00 in 0.00 in T in (1993)
Month to date snowfall 0.0 0.0  
Since 1 July snowfall T 0.0  
Since 1 September snowfall T 0.0  
Snow Depth 0.00 in    
Sea Level Pressure  
Sea Level Pressure 29.76 in    
Wind  
Wind Speed 8 mph (SW)    
Max Wind Speed 36 mph    
Max Gust Speed 47 mph    
Visibility 9 miles    
Events Rain    
T = Trace of Precipitation, MM = Missing Value Source: NWS Daily Summary

Daily Weather History Graph

Daily Weather History Graph

Search for Another Location

Airport or City:

Trip Planner

Search our weather history database for the weather conditions in past years. The results will help you decide how hot, cold, wet, or windy it might be!

Date:

Astronomy

Nov. 01, 2013 Rise Set
Actual Time 7:52 AM EDT 6:34 PM EDT
Civil Twilight 7:25 AM EDT 7:01 PM EDT
Nautical Twilight 6:55 AM EDT 7:31 PM EDT
Astronomical Twilight 6:25 AM EDT 8:01 PM EDT
Moon 5:46 AM EDT (11/1) 5:24 PM EDT (11/1)
Length of Visible Light 11h 35m
Length of Day
10h 42m
Waning Crescent, 4% of the Moon is Illuminated
Nov 1
Waning Crescent
Nov 3
New
Nov 10
First Quarter
Nov 17
Full
Nov 25
Last Quarter

Hourly Weather History & Observations

Time (EDT) Temp. Dew Point Humidity Pressure Visibility Wind Dir Wind Speed Gust Speed Precip Events Conditions
12:12 AM 62.6 °F 59.0 °F 88% 29.87 in 10.0 mi South 24.2 mph 34.5 mph 0.00 in Rain Light Rain
12:47 AM 62.6 °F 57.2 °F 82% 29.81 in 10.0 mi South 26.5 mph 42.6 mph 0.00 in Rain Light Rain
12:54 AM 63.0 °F 57.9 °F 84% 29.77 in 10.0 mi South 21.9 mph 35.7 mph 0.00 in Rain Light Rain
1:54 AM 63.0 °F 57.9 °F 84% 29.79 in 10.0 mi South 11.5 mph 31.1 mph 0.01 in   Overcast
2:54 AM 63.0 °F 57.0 °F 81% 29.77 in 10.0 mi South 15.0 mph 25.3 mph N/A   Overcast
3:54 AM 62.1 °F 57.0 °F 84% 29.76 in 10.0 mi South 13.8 mph 19.6 mph 0.00 in Rain Light Rain
4:54 AM 62.1 °F 59.0 °F 90% 29.73 in 10.0 mi South 17.3 mph 32.2 mph 0.00 in   Overcast
5:29 AM 62.6 °F 59.0 °F 88% 29.78 in 10.0 mi South 17.3 mph 26.5 mph 0.00 in   Overcast
5:54 AM 63.0 °F 59.0 °F 87% 29.73 in 10.0 mi South 16.1 mph 25.3 mph 0.00 in Rain Light Rain
6:06 AM 62.6 °F 59.0 °F 88% 29.78 in 10.0 mi South 15.0 mph 23.0 mph 0.00 in Rain Light Rain
6:14 AM 62.6 °F 59.0 °F 88% 29.78 in 10.0 mi SSW 9.2 mph 20.7 mph 0.00 in   Overcast
6:51 AM 62.6 °F 59.0 °F 88% 29.78 in 10.0 mi South 12.7 mph - 0.00 in   Overcast
6:54 AM 62.1 °F 59.0 °F 90% 29.73 in 10.0 mi South 12.7 mph - 0.00 in   Overcast
7:35 AM 62.6 °F 59.0 °F 88% 29.80 in 10.0 mi SSW 11.5 mph - 0.00 in Rain Light Rain
7:50 AM 62.6 °F 60.8 °F 94% 29.80 in 10.0 mi SSW 8.1 mph - 0.00 in Rain Light Rain
7:54 AM 63.0 °F 60.1 °F 90% 29.74 in 10.0 mi South 5.8 mph - 0.00 in Rain Light Rain
8:39 AM 62.6 °F 60.8 °F 94% 29.83 in 3.0 mi NNW 10.4 mph - 0.02 in Rain Light Rain
8:41 AM 60.8 °F 59.0 °F 94% 29.83 in 2.5 mi NNW 9.2 mph - 0.03 in Rain Light Rain
8:45 AM 60.8 °F 59.0 °F 94% 29.83 in 1.8 mi North 6.9 mph - 0.06 in Rain Light Rain
8:51 AM 60.8 °F 59.0 °F 94% 29.83 in 3.0 mi North 5.8 mph - 0.08 in Rain Light Rain
8:54 AM 61.0 °F 59.0 °F 93% 29.78 in 4.0 mi North 5.8 mph - 0.08 in Rain Light Rain
9:54 AM 60.1 °F 57.9 °F 93% 29.79 in 4.0 mi NNW 5.8 mph - 0.02 in Rain Light Rain
10:01 AM 60.8 °F 57.2 °F 88% 29.84 in 7.0 mi North 3.5 mph - 0.00 in Rain Light Rain
10:08 AM 60.8 °F 57.2 °F 88% 29.84 in 7.0 mi Calm Calm - 0.00 in Rain Light Rain
10:18 AM 62.6 °F 57.2 °F 82% 29.83 in 7.0 mi North 4.6 mph - 0.00 in Rain Light Rain
10:54 AM 64.0 °F 55.9 °F 75% 29.77 in 10.0 mi North 5.8 mph - 0.00 in   Clear
11:54 AM 66.9 °F 57.0 °F 70% 29.75 in 10.0 mi South 8.1 mph - N/A   Partly Cloudy
12:54 PM 68.0 °F 55.0 °F 63% 29.73 in 10.0 mi South 5.8 mph - N/A   Clear
1:54 PM 72.0 °F 52.0 °F 49% 29.68 in 10.0 mi South 4.6 mph - N/A   Clear
2:54 PM 73.0 °F 48.0 °F 41% 29.66 in 10.0 mi Calm Calm - N/A   Clear
3:54 PM 73.9 °F 48.9 °F 41% 29.62 in 10.0 mi South 5.8 mph - N/A   Clear
4:54 PM 73.0 °F 51.1 °F 46% 29.63 in 10.0 mi SSW 9.2 mph - N/A   Clear
5:54 PM 68.0 °F 55.9 °F 65% 29.65 in 10.0 mi South 10.4 mph - N/A   Clear
6:54 PM 66.0 °F 54.0 °F 65% 29.69 in 10.0 mi WNW 4.6 mph - N/A   Partly Cloudy
7:54 PM 62.1 °F 46.9 °F 58% 29.71 in 10.0 mi NNW 10.4 mph - N/A   Clear
8:54 PM 60.1 °F 46.9 °F 62% 29.73 in 10.0 mi NNW 9.2 mph - N/A   Clear
9:54 PM 57.0 °F 46.9 °F 69% 29.75 in 10.0 mi NNW 5.8 mph - N/A   Clear
10:54 PM 54.0 °F 46.0 °F 75% 29.77 in 10.0 mi NNW 4.6 mph - N/A   Clear
11:54 PM 54.0 °F 46.0 °F 75% 29.77 in 10.0 mi North 4.6 mph - N/A   Clear